Time,TemperatureF,DewpointF,PressureIn,WindDirection,WindDirectionDegrees,WindSpeedMPH,WindSpeedGustMPH,Humidity,HourlyPrecipIn,Conditions,Clouds,dailyrainin,SolarRadiationWatts/m^2,SoftwareType,DateUTC
2013-05-27 00:03:00,53.8,43.1,30.28,East,80,0.0,2.0,67,0.00,,,0.00,0,Wunderground v.1.15,2013-05-27 05:03:00,
2013-05-27 00:09:00,53.6,42.9,30.28,East,81,0.0,5.0,67,0.00,,,0.00,0,Wunderground v.1.15,2013-05-27 05:09:00,
2013-05-27 00:15:00,53.6,43.3,30.27,East,90,0.0,2.0,68,0.00,,,0.00,0,Wunderground v.1.15,2013-05-27 05:15:00,
2013-05-27 00:20:00,53.5,43.2,30.27,ENE,74,0.0,1.0,68,0.00,,,0.00,0,Wunderground v.1.15,2013-05-27 05:20:00,
2013-05-27 00:26:00,53.4,43.1,30.27,ENE,74,2.0,5.0,68,0.00,,,0.00,0,Wunderground v.1.15,2013-05-27 05:26:00,
2013-05-27 00:31:00,53.4,43.1,30.27,ENE,74,1.0,1.0,68,0.00,,,0.00,0,Wunderground v.1.15,2013-05-27 05:31:00,
2013-05-27 00:37:00,53.3,43.0,30.26,ENE,74,0.0,1.0,68,0.00,,,0.00,0,Wunderground v.1.15,2013-05-27 05:37:00,
2013-05-27 00:42:00,53.3,43.0,30.26,ENE,64,5.0,5.0,68,0.00,,,0.00,0,Wunderground v.1.15,2013-05-27 05:42:00,
2013-05-27 00:48:00,53.2,42.9,30.25,East,87,3.0,5.0,68,0.00,,,0.00,0,Wunderground v.1.15,2013-05-27 05:48:00,
2013-05-27 00:53:00,53.3,43.0,30.25,North,5,4.0,6.0,68,0.00,,,0.00,0,Wunderground v.1.15,2013-05-27 05:53:00,
2013-05-27 00:58:00,53.2,42.5,30.25,NNE,23,1.0,6.0,67,0.00,,,0.00,0,Wunderground v.1.15,2013-05-27 05:58:00,
2013-05-27 01:04:00,53.2,42.9,30.24,NNE,16,2.0,5.0,68,0.00,,,0.00,0,Wunderground v.1.15,2013-05-27 06:04:00,
2013-05-27 01:09:00,53.3,42.2,30.24,NE,47,1.0,5.0,66,0.00,,,0.00,0,Wunderground v.1.15,2013-05-27 06:09:00,
2013-05-27 01:15:00,53.3,41.8,30.24,North,5,0.0,2.0,65,0.00,,,0.00,0,Wunderground v.1.15,2013-05-27 06:15:00,
2013-05-27 01:20:00,53.3,41.8,30.24,NE,38,0.0,1.0,65,0.00,,,0.00,0,Wunderground v.1.15,2013-05-27 06:20:00,
2013-05-27 01:25:00,53.3,41.8,30.24,ENE,66,4.0,4.0,65,0.00,,,0.00,0,Wunderground v.1.15,2013-05-27 06:25:00,
2013-05-27 01:31:00,53.3,41.4,30.24,NE,49,2.0,2.0,64,0.00,,,0.00,0,Wunderground v.1.15,2013-05-27 06:31:00,
2013-05-27 01:36:00,53.4,41.5,30.23,NE,56,3.0,3.0,64,0.00,,,0.00,0,Wunderground v.1.15,2013-05-27 06:36:00,
2013-05-27 01:42:00,53.4,41.5,30.23,ENE,66,1.0,3.0,64,0.00,,,0.00,0,Wunderground v.1.15,2013-05-27 06:42:00,
2013-05-27 01:48:00,53.4,41.5,30.23,ENE,73,0.0,3.0,64,0.00,,,0.00,0,Wunderground v.1.15,2013-05-27 06:48:00,
2013-05-27 01:53:00,53.4,41.5,30.23,ENE,77,3.0,3.0,64,0.00,,,0.00,0,Wunderground v.1.15,2013-05-27 06:53:00,
2013-05-27 01:58:00,53.5,41.2,30.23,NE,56,0.0,4.0,63,0.00,,,0.00,0,Wunderground v.1.15,2013-05-27 06:58:00,
2013-05-27 02:03:00,53.5,41.6,30.23,East,84,4.0,6.0,64,0.00,,,0.00,0,Wunderground v.1.15,2013-05-27 07:03:00,
2013-05-27 02:08:00,53.5,41.6,30.23,NE,50,1.0,6.0,64,0.00,,,0.00,0,Wunderground v.1.15,2013-05-27 07:08:00,
2013-05-27 02:13:00,53.5,41.2,30.23,NE,44,2.0,5.0,63,0.00,,,0.00,0,Wunderground v.1.15,2013-05-27 07:13:00,
2013-05-27 02:18:00,53.5,41.6,30.22,NE,42,0.0,5.0,64,0.00,,,0.00,0,Wunderground v.1.15,2013-05-27 07:18:00,
2013-05-27 02:23:00,53.5,41.2,30.22,ENE,73,1.0,6.0,63,0.00,,,0.00,0,Wunderground v.1.15,2013-05-27 07:23:00,
2013-05-27 02:28:00,53.5,41.6,30.22,East,86,0.0,6.0,64,0.00,,,0.00,0,Wunderground v.1.15,2013-05-27 07:28:00,
2013-05-27 02:33:00,53.5,41.2,30.22,NE,37,2.0,12.0,63,0.00,,,0.00,0,Wunderground v.1.15,2013-05-27 07:33:00,
2013-05-27 02:38:00,53.5,41.2,30.22,NE,56,2.0,12.0,63,0.00,,,0.00,0,Wunderground v.1.15,2013-05-27 07:38:00,
2013-05-27 02:43:00,53.6,41.3,30.22,NE,42,1.0,3.0,63,0.00,,,0.00,0,Wunderground v.1.15,2013-05-27 07:43:00,
2013-05-27 02:48:00,53.5,41.2,30.22,NNE,19,2.0,6.0,63,0.00,,,0.00,0,Wunderground v.1.15,2013-05-27 07:48:00,
2013-05-27 02:53:00,53.6,41.3,30.22,NE,40,0.0,5.0,63,0.00,,,0.00,0,Wunderground v.1.15,2013-05-27 07:53:00,
2013-05-27 02:59:00,53.5,41.2,30.21,NE,51,1.0,5.0,63,0.00,,,0.00,0,Wunderground v.1.15,2013-05-27 07:59:00,
2013-05-27 03:04:00,53.5,41.2,30.21,NE,40,1.0,9.0,63,0.00,,,0.00,0,Wunderground v.1.15,2013-05-27 08:04:00,
2013-05-27 03:09:00,53.4,41.1,30.20,ENE,67,1.0,9.0,63,0.00,,,0.00,0,Wunderground v.1.15,2013-05-27 08:09:00,
2013-05-27 03:14:00,53.3,41.0,30.20,NNE,32,0.0,10.0,63,0.00,,,0.00,0,Wunderground v.1.15,2013-05-27 08:14:00,
2013-05-27 03:19:00,53.3,40.6,30.19,NE,52,1.0,10.0,62,0.00,,,0.00,0,Wunderground v.1.15,2013-05-27 08:19:00,
2013-05-27 03:24:00,53.2,40.5,30.19,NE,47,0.0,4.0,62,0.00,,,0.00,0,Wunderground v.1.15,2013-05-27 08:24:00,
2013-05-27 03:29:00,53.2,40.1,30.19,NE,45,4.0,6.0,61,0.00,,,0.00,0,Wunderground v.1.15,2013-05-27 08:29:00,
2013-05-27 03:34:00,53.2,40.1,30.18,NE,38,2.0,9.0,61,0.00,,,0.00,0,Wunderground v.1.15,2013-05-27 08:34:00,
2013-05-27 03:39:00,53.3,40.2,30.18,ENE,58,3.0,9.0,61,0.00,,,0.00,0,Wunderground v.1.15,2013-05-27 08:39:00,
2013-05-27 03:44:00,53.3,40.2,30.18,NE,54,1.0,4.0,61,0.00,,,0.00,0,Wunderground v.1.15,2013-05-27 08:44:00,
2013-05-27 03:49:00,53.2,40.1,30.18,NE,51,2.0,6.0,61,0.00,,,0.00,0,Wunderground v.1.15,2013-05-27 08:49:00,
2013-05-27 03:54:00,53.2,40.5,30.18,NE,41,3.0,3.0,62,0.00,,,0.00,0,Wunderground v.1.15,2013-05-27 08:54:00,
2013-05-27 03:59:00,53.2,40.5,30.18,NE,51,0.0,5.0,62,0.00,,,0.00,0,Wunderground v.1.15,2013-05-27 08:59:00,
2013-05-27 04:04:00,53.3,40.6,30.18,NE,53,0.0,5.0,62,0.00,,,0.00,0,Wunderground v.1.15,2013-05-27 09:04:00,
2013-05-27 04:09:00,53.3,40.6,30.18,NE,40,1.0,5.0,62,0.00,,,0.00,0,Wunderground v.1.15,2013-05-27 09:09:00,
2013-05-27 04:14:00,53.5,40.8,30.18,NE,42,0.0,6.0,62,0.00,,,0.00,0,Wunderground v.1.15,2013-05-27 09:14:00,
2013-05-27 04:19:00,53.5,40.8,30.18,NE,51,1.0,6.0,62,0.00,,,0.00,0,Wunderground v.1.15,2013-05-27 09:19:00,
2013-05-27 04:24:00,53.5,40.8,30.18,NE,41,0.0,6.0,62,0.00,,,0.00,0,Wunderground v.1.15,2013-05-27 09:24:00,
2013-05-27 04:29:00,53.6,40.9,30.18,NE,42,4.0,6.0,62,0.00,,,0.00,0,Wunderground v.1.15,2013-05-27 09:29:00,
2013-05-27 04:34:00,53.6,40.9,30.18,NE,47,3.0,6.0,62,0.00,,,0.00,0,Wunderground v.1.15,2013-05-27 09:34:00,
2013-05-27 04:39:00,53.6,41.3,30.19,NE,42,0.0,6.0,63,0.00,,,0.00,0,Wunderground v.1.15,2013-05-27 09:39:00,
2013-05-27 04:44:00,53.6,41.3,30.18,NE,40,0.0,4.0,63,0.00,,,0.00,0,Wunderground v.1.15,2013-05-27 09:44:00,
2013-05-27 04:49:00,53.5,41.2,30.18,NE,38,0.0,4.0,63,0.00,,,0.00,0,Wunderground v.1.15,2013-05-27 09:49:00,
2013-05-27 04:54:00,53.5,41.2,30.18,NE,42,0.0,6.0,63,0.00,,,0.00,0,Wunderground v.1.15,2013-05-27 09:54:00,
2013-05-27 04:59:00,53.5,41.6,30.18,NE,36,1.0,6.0,64,0.00,,,0.00,0,Wunderground v.1.15,2013-05-27 09:59:00,
2013-05-27 05:04:00,53.4,41.5,30.18,ENE,72,2.0,7.0,64,0.00,,,0.00,0,Wunderground v.1.15,2013-05-27 10:04:00,
2013-05-27 05:09:00,53.3,41.4,30.18,NE,40,0.0,7.0,64,0.00,,,0.00,0,Wunderground v.1.15,2013-05-27 10:09:00,
2013-05-27 05:14:00,53.3,41.8,30.17,ENE,57,1.0,6.0,65,0.00,,,0.00,0,Wunderground v.1.15,2013-05-27 10:14:00,
2013-05-27 05:19:00,53.2,41.7,30.17,ENE,57,2.0,8.0,65,0.00,,,0.00,0,Wunderground v.1.15,2013-05-27 10:19:00,
2013-05-27 05:24:00,53.2,42.1,30.17,NE,42,2.0,4.0,66,0.00,,,0.00,0,Wunderground v.1.15,2013-05-27 10:24:00,
2013-05-27 05:29:00,53.1,42.0,30.17,ENE,57,2.0,5.0,66,0.00,,,0.00,0,Wunderground v.1.15,2013-05-27 10:29:00,
2013-05-27 05:34:00,53.0,41.9,30.17,NE,54,0.0,7.0,66,0.00,,,0.00,5,Wunderground v.1.15,2013-05-27 10:34:00,
2013-05-27 05:39:00,53.0,42.3,30.17,NE,47,1.0,7.0,67,0.00,,,0.00,7,Wunderground v.1.15,2013-05-27 10:39:00,
2013-05-27 05:44:00,52.9,42.2,30.17,NE,45,2.0,5.0,67,0.00,,,0.00,11,Wunderground v.1.15,2013-05-27 10:44:00,
2013-05-27 05:49:00,52.9,42.6,30.17,ENE,57,0.0,9.0,68,0.00,,,0.00,12,Wunderground v.1.15,2013-05-27 10:49:00,
2013-05-27 05:54:00,52.9,42.6,30.17,ENE,66,2.0,4.0,68,0.00,,,0.00,19,Wunderground v.1.15,2013-05-27 10:54:00,
2013-05-27 05:59:00,52.9,43.0,30.17,NE,40,0.0,5.0,69,0.00,,,0.00,21,Wunderground v.1.15,2013-05-27 10:59:00,
2013-05-27 06:04:00,52.9,43.0,30.17,NE,52,0.0,8.0,69,0.00,,,0.00,23,Wunderground v.1.15,2013-05-27 11:04:00,
2013-05-27 06:09:00,52.9,43.0,30.17,ENE,71,0.0,8.0,69,0.00,,,0.00,23,Wunderground v.1.15,2013-05-27 11:09:00,
2013-05-27 06:14:00,53.0,43.5,30.17,ENE,65,0.0,4.0,70,0.00,,,0.00,21,Wunderground v.1.15,2013-05-27 11:14:00,
2013-05-27 06:19:00,53.0,43.1,30.16,ENE,75,1.0,8.0,69,0.00,,,0.00,25,Wunderground v.1.15,2013-05-27 11:19:00,
2013-05-27 06:24:00,53.0,43.8,30.17,East,90,4.0,5.0,71,0.00,,,0.00,25,Wunderground v.1.15,2013-05-27 11:24:00,
2013-05-27 06:29:00,53.1,43.9,30.17,East,100,4.0,7.0,71,0.00,,,0.00,28,Wunderground v.1.15,2013-05-27 11:29:00,
2013-05-27 06:34:00,53.2,44.0,30.17,East,79,2.0,6.0,71,0.00,,,0.00,33,Wunderground v.1.15,2013-05-27 11:34:00,
2013-05-27 06:39:00,53.4,43.9,30.17,NE,46,0.0,6.0,70,0.00,,,0.00,28,Wunderground v.1.15,2013-05-27 11:39:00,
2013-05-27 06:44:00,53.5,44.0,30.17,ENE,63,2.0,6.0,70,0.00,,,0.00,25,Wunderground v.1.15,2013-05-27 11:44:00,
2013-05-27 06:49:00,53.6,44.0,30.18,ENE,57,0.0,7.0,70,0.00,,,0.00,30,Wunderground v.1.15,2013-05-27 11:49:00,
2013-05-27 06:54:00,53.7,43.8,30.18,ENE,61,0.0,3.0,69,0.00,,,0.00,30,Wunderground v.1.15,2013-05-27 11:54:00,
2013-05-27 06:59:00,53.8,44.2,30.18,ENE,70,0.0,3.0,70,0.00,,,0.00,32,Wunderground v.1.15,2013-05-27 11:59:00,
2013-05-27 07:04:00,53.9,44.0,30.18,ENE,74,2.0,4.0,69,0.00,,,0.00,28,Wunderground v.1.15,2013-05-27 12:04:00,
2013-05-27 07:09:00,53.9,44.0,30.18,ENE,71,1.0,7.0,69,0.00,,,0.00,26,Wunderground v.1.15,2013-05-27 12:09:00,
2013-05-27 07:14:00,53.9,44.0,30.18,SSE,167,2.0,2.0,69,0.00,,,0.00,26,Wunderground v.1.15,2013-05-27 12:14:00,
2013-05-27 07:19:00,53.9,44.3,30.18,NE,50,0.0,6.0,70,0.00,,,0.00,28,Wunderground v.1.15,2013-05-27 12:19:00,
2013-05-27 07:24:00,54.0,44.4,30.18,East,92,1.0,7.0,70,0.00,,,0.00,33,Wunderground v.1.15,2013-05-27 12:24:00,
2013-05-27 07:29:00,54.0,44.4,30.18,NE,49,0.0,7.0,70,0.00,,,0.00,37,Wunderground v.1.15,2013-05-27 12:29:00,
2013-05-27 07:34:00,54.1,44.5,30.18,ENE,59,0.0,2.0,70,0.00,,,0.00,39,Wunderground v.1.15,2013-05-27 12:34:00,
2013-05-27 07:39:00,54.1,44.2,30.19,ENE,61,1.0,5.0,69,0.00,,,0.00,33,Wunderground v.1.15,2013-05-27 12:39:00,
2013-05-27 07:44:00,54.2,44.6,30.18,ESE,103,1.0,7.0,70,0.00,,,0.00,35,Wunderground v.1.15,2013-05-27 12:44:00,
2013-05-27 07:49:00,54.2,44.2,30.18,ESE,113,6.0,7.0,69,0.00,,,0.00,40,Wunderground v.1.15,2013-05-27 12:49:00,
2013-05-27 07:54:00,54.3,44.7,30.18,ENE,58,4.0,5.0,70,0.00,,,0.00,44,Wunderground v.1.15,2013-05-27 12:54:00,
2013-05-27 07:59:00,54.3,44.7,30.18,NE,44,0.0,5.0,70,0.00,,,0.00,47,Wunderground v.1.15,2013-05-27 12:59:00,
2013-05-27 08:04:00,54.4,44.8,30.18,NE,56,0.0,5.0,70,0.00,,,0.00,54,Wunderground v.1.15,2013-05-27 13:04:00,
2013-05-27 08:09:00,54.4,45.2,30.18,NE,56,0.0,5.0,71,0.00,,,0.00,65,Wunderground v.1.15,2013-05-27 13:09:00,
2013-05-27 08:14:00,54.5,45.3,30.18,East,92,1.0,7.0,71,0.00,,,0.00,88,Wunderground v.1.15,2013-05-27 13:14:00,
2013-05-27 08:19:00,54.5,45.3,30.17,ENE,59,0.0,7.0,71,0.00,,,0.00,84,Wunderground v.1.15,2013-05-27 13:19:00,
2013-05-27 08:25:00,54.6,45.4,30.17,NE,38,3.0,7.0,71,0.00,,,0.00,84,Wunderground v.1.15,2013-05-27 13:25:00,
2013-05-27 08:30:00,54.7,45.5,30.17,ENE,74,4.0,4.0,71,0.00,,,0.00,97,Wunderground v.1.15,2013-05-27 13:30:00,
2013-05-27 08:35:00,54.7,45.8,30.17,East,80,0.0,4.0,72,0.00,,,0.00,111,Wunderground v.1.15,2013-05-27 13:35:00,
2013-05-27 08:40:00,54.7,46.2,30.17,NE,53,2.0,6.0,73,0.00,,,0.00,97,Wunderground v.1.15,2013-05-27 13:40:00,
2013-05-27 08:45:00,54.8,46.7,30.16,ENE,65,0.0,6.0,74,0.00,,,0.00,93,Wunderground v.1.15,2013-05-27 13:45:00,
2013-05-27 08:50:00,54.9,46.8,30.16,ENE,76,6.0,7.0,74,0.00,,,0.00,102,Wunderground v.1.15,2013-05-27 13:50:00,
2013-05-27 08:55:00,55.0,46.5,30.16,ENE,75,0.0,8.0,73,0.00,,,0.00,105,Wunderground v.1.15,2013-05-27 13:55:00,
2013-05-27 09:00:00,55.1,46.6,30.16,ESE,123,1.0,3.0,73,0.00,,,0.00,95,Wunderground v.1.15,2013-05-27 14:00:00,
2013-05-27 09:05:00,55.3,47.2,30.16,East,97,0.0,9.0,74,0.00,,,0.00,102,Wunderground v.1.15,2013-05-27 14:05:00,
2013-05-27 09:10:00,55.5,47.0,30.16,ESE,109,5.0,6.0,73,0.00,,,0.00,109,Wunderground v.1.15,2013-05-27 14:10:00,
2013-05-27 09:15:00,55.7,47.5,30.15,ESE,118,4.0,12.0,74,0.00,,,0.00,141,Wunderground v.1.15,2013-05-27 14:15:00,
2013-05-27 09:20:00,55.8,47.6,30.15,ESE,108,0.0,4.0,74,0.00,,,0.00,178,Wunderground v.1.15,2013-05-27 14:20:00,
2013-05-27 09:25:00,56.1,48.6,30.14,East,98,5.0,6.0,76,0.00,,,0.00,193,Wunderground v.1.15,2013-05-27 14:25:00,
2013-05-27 09:30:00,56.4,48.9,30.14,ESE,119,5.0,8.0,76,0.00,,,0.00,174,Wunderground v.1.15,2013-05-27 14:30:00,
2013-05-27 09:35:00,56.5,49.0,30.14,ESE,104,4.0,14.0,76,0.00,,,0.00,174,Wunderground v.1.15,2013-05-27 14:35:00,
2013-05-27 09:40:00,56.6,49.8,30.14,ESE,115,0.0,6.0,78,0.00,,,0.00,162,Wunderground v.1.15,2013-05-27 14:40:00,
2013-05-27 09:45:00,56.6,50.2,30.14,ESE,104,9.0,18.0,79,0.00,,,0.00,137,Wunderground v.1.15,2013-05-27 14:45:00,
2013-05-27 09:50:00,56.5,50.4,30.13,ESE,104,6.0,12.0,80,0.00,,,0.00,134,Wunderground v.1.15,2013-05-27 14:50:00,
2013-05-27 09:55:00,56.5,50.4,30.13,ESE,107,6.0,12.0,80,0.00,,,0.00,127,Wunderground v.1.15,2013-05-27 14:55:00,
2013-05-27 10:00:00,56.6,50.8,30.12,East,95,6.0,11.0,81,0.00,,,0.00,120,Wunderground v.1.15,2013-05-27 15:00:00,
2013-05-27 10:05:00,56.7,50.9,30.12,East,98,0.0,11.0,81,0.00,,,0.00,121,Wunderground v.1.15,2013-05-27 15:05:00,
2013-05-27 10:11:00,56.7,50.9,30.12,East,80,1.0,6.0,81,0.00,,,0.00,118,Wunderground v.1.15,2013-05-27 15:11:00,
2013-05-27 10:16:00,56.7,51.3,30.13,East,86,7.0,12.0,82,0.00,,,0.00,77,Wunderground v.1.15,2013-05-27 15:16:00,
2013-05-27 10:21:00,56.7,51.6,30.13,ESE,109,4.0,9.0,83,0.00,,,0.00,88,Wunderground v.1.15,2013-05-27 15:21:00,
2013-05-27 10:26:00,56.6,51.5,30.13,ESE,109,11.0,15.0,83,0.00,,,0.00,104,Wunderground v.1.15,2013-05-27 15:26:00,
2013-05-27 10:31:00,56.5,51.4,30.12,ENE,63,5.0,12.0,83,0.00,,,0.00,88,Wunderground v.1.15,2013-05-27 15:31:00,
2013-05-27 10:36:00,56.5,51.4,30.12,East,90,4.0,14.0,83,0.00,,,0.00,91,Wunderground v.1.15,2013-05-27 15:36:00,
2013-05-27 10:41:00,56.4,51.6,30.12,East,96,5.0,14.0,84,0.00,,,0.00,97,Wunderground v.1.15,2013-05-27 15:41:00,
2013-05-27 10:47:00,56.4,51.6,30.11,ENE,73,8.0,18.0,84,0.00,,,0.00,120,Wunderground v.1.15,2013-05-27 15:47:00,
2013-05-27 10:52:00,56.4,51.6,30.11,ENE,61,6.0,11.0,84,0.00,,,0.00,141,Wunderground v.1.15,2013-05-27 15:52:00,
2013-05-27 10:57:00,56.5,52.0,30.11,NE,49,3.0,13.0,85,0.00,,,0.00,139,Wunderground v.1.15,2013-05-27 15:57:00,
2013-05-27 11:02:00,56.7,51.9,30.11,ENE,67,12.0,13.0,84,0.00,,,0.00,149,Wunderground v.1.15,2013-05-27 16:02:00,
2013-05-27 11:07:00,56.8,52.0,30.11,East,92,1.0,13.0,84,0.00,,,0.00,174,Wunderground v.1.15,2013-05-27 16:07:00,
2013-05-27 11:12:00,57.1,52.3,30.12,East,81,7.0,13.0,84,0.00,,,0.00,148,Wunderground v.1.15,2013-05-27 16:12:00,
2013-05-27 11:17:00,57.2,52.1,30.12,ESE,122,5.0,17.0,83,0.00,,,0.00,91,Wunderground v.1.15,2013-05-27 16:17:00,
2013-05-27 11:22:00,57.2,52.4,30.12,East,80,0.0,10.0,84,0.00,,,0.00,90,Wunderground v.1.15,2013-05-27 16:22:00,
2013-05-27 11:27:00,57.2,52.4,30.13,NE,52,8.0,10.0,84,0.00,,,0.00,60,Wunderground v.1.15,2013-05-27 16:27:00,
2013-05-27 11:32:00,57.1,52.3,30.14,SE,130,11.0,20.0,84,0.00,,,0.00,51,Wunderground v.1.15,2013-05-27 16:32:00,
2013-05-27 11:37:00,56.8,52.3,30.14,ENE,64,2.0,20.0,85,0.00,,,0.00,47,Wunderground v.1.15,2013-05-27 16:37:00,
2013-05-27 11:42:00,56.7,52.2,30.14,ESE,122,7.0,15.0,85,0.00,,,0.00,47,Wunderground v.1.15,2013-05-27 16:42:00,
2013-05-27 11:47:00,56.6,52.5,30.14,ESE,114,18.0,18.0,86,0.00,,,0.00,49,Wunderground v.1.15,2013-05-27 16:47:00,
2013-05-27 11:52:00,56.4,51.9,30.14,East,98,14.0,17.0,85,0.00,,,0.00,58,Wunderground v.1.15,2013-05-27 16:52:00,
2013-05-27 11:57:00,56.3,52.2,30.14,ESE,123,5.0,17.0,86,0.00,,,0.00,53,Wunderground v.1.15,2013-05-27 16:57:00,
2013-05-27 12:02:00,56.3,52.2,30.14,East,96,4.0,15.0,86,0.00,,,0.00,56,Wunderground v.1.15,2013-05-27 17:02:00,
2013-05-27 12:07:00,56.2,52.1,30.14,SE,144,12.0,20.0,86,0.00,,,0.00,77,Wunderground v.1.15,2013-05-27 17:07:00,
2013-05-27 12:12:00,56.1,52.0,30.14,ENE,63,4.0,14.0,86,0.00,,,0.00,63,Wunderground v.1.15,2013-05-27 17:12:00,
2013-05-27 12:17:00,56.1,52.0,30.14,ESE,102,8.0,16.0,86,0.00,,,0.00,56,Wunderground v.1.15,2013-05-27 17:17:00,
2013-05-27 12:22:00,56.0,51.9,30.14,SE,126,8.0,14.0,86,0.00,,,0.00,58,Wunderground v.1.15,2013-05-27 17:22:00,
2013-05-27 12:27:00,55.8,51.7,30.14,ENE,75,1.0,19.0,86,0.00,,,0.00,56,Wunderground v.1.15,2013-05-27 17:27:00,
2013-05-27 12:32:00,55.8,52.0,30.13,ESE,117,6.0,10.0,87,0.00,,,0.00,53,Wunderground v.1.15,2013-05-27 17:32:00,
2013-05-27 12:37:00,55.8,52.0,30.14,NE,53,6.0,11.0,87,0.00,,,0.00,44,Wunderground v.1.15,2013-05-27 17:37:00,
2013-05-27 12:42:00,55.7,51.9,30.14,ESE,109,0.0,11.0,87,0.00,,,0.00,46,Wunderground v.1.15,2013-05-27 17:42:00,
2013-05-27 12:47:00,55.6,51.8,30.13,ESE,112,8.0,11.0,87,0.00,,,0.00,46,Wunderground v.1.15,2013-05-27 17:47:00,
2013-05-27 12:52:00,55.5,51.7,30.13,ENE,77,4.0,13.0,87,0.00,,,0.00,51,Wunderground v.1.15,2013-05-27 17:52:00,
2013-05-27 12:57:00,55.4,51.9,30.13,ENE,78,3.0,14.0,88,0.00,,,0.00,54,Wunderground v.1.15,2013-05-27 17:57:00,
2013-05-27 13:02:00,55.3,51.8,30.13,ESE,109,1.0,14.0,88,0.00,,,0.00,63,Wunderground v.1.15,2013-05-27 18:02:00,
2013-05-27 13:08:00,55.2,51.7,30.13,East,101,12.0,14.0,88,0.00,,,0.00,67,Wunderground v.1.15,2013-05-27 18:08:00,
2013-05-27 13:13:00,55.2,51.7,30.12,East,84,7.0,9.0,88,0.00,,,0.00,74,Wunderground v.1.15,2013-05-27 18:13:00,
2013-05-27 13:18:00,55.2,51.7,30.12,East,93,7.0,15.0,88,0.00,,,0.00,109,Wunderground v.1.15,2013-05-27 18:18:00,
2013-05-27 13:23:00,55.2,51.7,30.12,East,83,5.0,13.0,88,0.00,,,0.00,111,Wunderground v.1.15,2013-05-27 18:23:00,
2013-05-27 13:28:00,55.3,51.5,30.12,East,80,3.0,19.0,87,0.00,,,0.00,90,Wunderground v.1.15,2013-05-27 18:28:00,
2013-05-27 13:33:00,55.2,51.4,30.11,East,98,0.0,12.0,87,0.00,,,0.00,81,Wunderground v.1.15,2013-05-27 18:33:00,
2013-05-27 13:38:00,55.2,51.7,30.11,ENE,64,3.0,13.0,88,0.00,,,0.00,114,Wunderground v.1.15,2013-05-27 18:38:00,
2013-05-27 13:43:00,55.1,51.6,30.10,ENE,74,6.0,13.0,88,0.00,,,0.00,158,Wunderground v.1.15,2013-05-27 18:43:00,
2013-05-27 13:48:00,55.2,51.4,30.10,NE,46,4.0,13.0,87,0.00,,,0.00,246,Wunderground v.1.15,2013-05-27 18:48:00,
2013-05-27 13:53:00,55.3,51.5,30.09,NE,51,5.0,14.0,87,0.00,,,0.00,301,Wunderground v.1.15,2013-05-27 18:53:00,
2013-05-27 13:58:00,55.6,51.5,30.09,SE,130,9.0,18.0,86,0.00,,,0.00,322,Wunderground v.1.15,2013-05-27 18:58:00,
2013-05-27 14:03:00,55.7,51.6,30.09,SSE,157,8.0,21.0,86,0.00,,,0.00,330,Wunderground v.1.15,2013-05-27 19:03:00,
2013-05-27 14:08:00,56.0,51.6,30.09,ESE,111,11.0,21.0,85,0.00,,,0.00,369,Wunderground v.1.15,2013-05-27 19:08:00,
2013-05-27 14:13:00,56.0,51.2,30.09,East,92,11.0,22.0,84,0.00,,,0.00,236,Wunderground v.1.15,2013-05-27 19:13:00,
2013-05-27 14:18:00,55.9,51.5,30.09,East,88,1.0,22.0,85,0.00,,,0.00,214,Wunderground v.1.15,2013-05-27 19:18:00,
2013-05-27 14:23:00,55.9,51.5,30.09,ESE,109,13.0,14.0,85,0.00,,,0.00,197,Wunderground v.1.15,2013-05-27 19:23:00,
2013-05-27 14:28:00,55.8,51.0,30.09,North,5,5.0,16.0,84,0.00,,,0.00,204,Wunderground v.1.15,2013-05-27 19:28:00,
2013-05-27 14:33:00,55.5,50.7,30.09,ENE,57,11.0,24.0,84,0.00,,,0.00,279,Wunderground v.1.15,2013-05-27 19:33:00,
2013-05-27 14:38:00,55.7,51.6,30.08,ESE,119,13.0,24.0,86,0.00,,,0.00,403,Wunderground v.1.15,2013-05-27 19:38:00,
2013-05-27 14:43:00,56.3,51.8,30.07,SE,134,16.0,16.0,85,0.00,,,0.00,519,Wunderground v.1.15,2013-05-27 19:43:00,
2013-05-27 14:49:00,56.9,51.8,30.06,ESE,105,14.0,17.0,83,0.00,,,0.00,476,Wunderground v.1.15,2013-05-27 19:49:00,
2013-05-27 14:54:00,57.3,51.9,30.07,East,97,19.0,19.0,82,0.00,,,0.00,436,Wunderground v.1.15,2013-05-27 19:54:00,
2013-05-27 14:59:00,57.4,51.6,30.08,ENE,66,5.0,19.0,81,0.00,,,0.00,295,Wunderground v.1.15,2013-05-27 19:59:00,
2013-05-27 15:04:00,56.9,51.1,30.08,East,93,9.0,17.0,81,0.00,,,0.00,211,Wunderground v.1.15,2013-05-27 20:04:00,
2013-05-27 15:09:00,56.3,50.5,30.09,East,99,13.0,19.0,81,0.00,,,0.00,190,Wunderground v.1.15,2013-05-27 20:09:00,
2013-05-27 15:14:00,55.5,50.4,30.09,ENE,75,8.0,15.0,83,0.00,,,0.00,192,Wunderground v.1.15,2013-05-27 20:14:00,
2013-05-27 15:19:00,55.2,50.4,30.09,ENE,71,2.0,20.0,84,0.00,,,0.00,160,Wunderground v.1.15,2013-05-27 20:19:00,
2013-05-27 15:24:00,54.9,50.5,30.09,East,88,5.0,16.0,85,0.00,,,0.00,130,Wunderground v.1.15,2013-05-27 20:24:00,
2013-05-27 15:29:00,54.8,50.4,30.08,East,86,3.0,18.0,85,0.00,,,0.00,142,Wunderground v.1.15,2013-05-27 20:29:00,
2013-05-27 15:34:00,54.9,50.8,30.08,ENE,60,2.0,6.0,86,0.00,,,0.00,128,Wunderground v.1.15,2013-05-27 20:34:00,
2013-05-27 15:39:00,54.8,50.4,30.08,East,82,3.0,13.0,85,0.00,,,0.00,144,Wunderground v.1.15,2013-05-27 20:39:00,
2013-05-27 15:44:00,54.6,50.5,30.07,ENE,77,6.0,16.0,86,0.00,,,0.00,130,Wunderground v.1.15,2013-05-27 20:44:00,
2013-05-27 15:49:00,54.5,50.4,30.07,East,82,3.0,16.0,86,0.00,,,0.00,134,Wunderground v.1.15,2013-05-27 20:49:00,
2013-05-27 15:54:00,54.3,50.2,30.07,ESE,109,9.0,19.0,86,0.00,,,0.00,132,Wunderground v.1.15,2013-05-27 20:54:00,
2013-05-27 15:59:00,54.2,50.4,30.07,ENE,64,2.0,19.0,87,0.00,,,0.00,139,Wunderground v.1.15,2013-05-27 20:59:00,
2013-05-27 16:04:00,54.2,50.1,30.08,ENE,78,4.0,15.0,86,0.00,,,0.00,109,Wunderground v.1.15,2013-05-27 21:04:00,
2013-05-27 16:09:00,54.0,49.9,30.08,ENE,57,4.0,15.0,86,0.00,,,0.00,111,Wunderground v.1.15,2013-05-27 21:09:00,
2013-05-27 16:14:00,53.8,49.7,30.08,ENE,68,1.0,19.0,86,0.00,,,0.00,84,Wunderground v.1.15,2013-05-27 21:14:00,
2013-05-27 16:19:00,53.6,49.8,30.08,NE,48,6.0,19.0,87,0.00,,,0.00,77,Wunderground v.1.15,2013-05-27 21:19:00,
2013-05-27 16:24:00,53.5,49.7,30.08,NE,44,4.0,19.0,87,0.00,,,0.00,72,Wunderground v.1.15,2013-05-27 21:24:00,
2013-05-27 16:29:00,53.3,49.5,30.08,NE,48,4.0,19.0,87,0.00,,,0.00,62,Wunderground v.1.15,2013-05-27 21:29:00,
2013-05-27 16:34:00,53.3,49.8,30.08,ENE,61,5.0,9.0,88,0.00,,,0.00,60,Wunderground v.1.15,2013-05-27 21:34:00,
2013-05-27 16:39:00,53.3,49.5,30.08,East,100,4.0,14.0,87,0.00,,,0.00,67,Wunderground v.1.15,2013-05-27 21:39:00,
2013-05-27 16:44:00,53.3,49.8,30.08,ESE,105,4.0,10.0,88,0.00,,,0.00,69,Wunderground v.1.15,2013-05-27 21:44:00,
2013-05-27 16:49:00,53.2,49.4,30.07,ENE,75,6.0,11.0,87,0.00,,,0.00,74,Wunderground v.1.15,2013-05-27 21:49:00,
2013-05-27 16:54:00,53.1,49.3,30.07,East,90,11.0,13.0,87,0.00,,,0.00,69,Wunderground v.1.15,2013-05-27 21:54:00,
2013-05-27 16:59:00,53.1,49.3,30.07,ENE,61,4.0,13.0,87,0.00,,,0.00,60,Wunderground v.1.15,2013-05-27 21:59:00,
2013-05-27 17:04:00,53.1,49.6,30.07,East,80,5.0,15.0,88,0.00,,,0.00,62,Wunderground v.1.15,2013-05-27 22:04:00,
2013-05-27 17:09:00,53.1,49.6,30.08,East,82,1.0,15.0,88,0.00,,,0.00,51,Wunderground v.1.15,2013-05-27 22:09:00,
2013-05-27 17:14:00,53.0,49.5,30.08,ENE,71,3.0,15.0,88,0.00,,,0.00,54,Wunderground v.1.15,2013-05-27 22:14:00,
2013-05-27 17:19:00,53.0,49.5,30.07,NNE,32,1.0,15.0,88,0.00,,,0.00,65,Wunderground v.1.15,2013-05-27 22:19:00,
2013-05-27 17:24:00,53.0,49.5,30.07,SSE,162,4.0,8.0,88,0.00,,,0.00,58,Wunderground v.1.15,2013-05-27 22:24:00,
2013-05-27 17:29:00,52.9,49.4,30.07,SE,130,5.0,13.0,88,0.00,,,0.00,54,Wunderground v.1.15,2013-05-27 22:29:00,
2013-05-27 17:34:00,52.9,49.4,30.06,NE,55,0.0,11.0,88,0.00,,,0.00,49,Wunderground v.1.15,2013-05-27 22:34:00,
2013-05-27 17:39:00,52.8,49.3,30.06,East,88,3.0,11.0,88,0.00,,,0.00,40,Wunderground v.1.15,2013-05-27 22:39:00,
2013-05-27 17:44:00,52.8,49.3,30.06,ENE,66,1.0,8.0,88,0.00,,,0.00,39,Wunderground v.1.15,2013-05-27 22:44:00,
2013-05-27 17:49:00,52.8,49.6,30.06,NNE,21,3.0,8.0,89,0.00,,,0.00,33,Wunderground v.1.15,2013-05-27 22:49:00,
2013-05-27 17:54:00,52.7,49.5,30.06,East,90,5.0,10.0,89,0.00,,,0.00,39,Wunderground v.1.15,2013-05-27 22:54:00,
2013-05-27 17:59:00,52.6,49.4,30.06,ENE,59,7.0,11.0,89,0.00,,,0.00,37,Wunderground v.1.15,2013-05-27 22:59:00,
2013-05-27 18:04:00,52.4,49.6,30.06,ENE,69,2.0,13.0,90,0.00,,,0.00,28,Wunderground v.1.15,2013-05-27 23:04:00,
2013-05-27 18:09:00,52.2,49.4,30.06,ENE,61,0.0,14.0,90,0.00,,,0.00,21,Wunderground v.1.15,2013-05-27 23:09:00,
2013-05-27 18:14:00,52.1,49.6,30.06,East,90,8.0,12.0,91,0.00,,,0.00,18,Wunderground v.1.15,2013-05-27 23:14:00,
2013-05-27 18:19:00,52.0,49.5,30.05,ENE,59,0.0,12.0,91,0.00,,,0.00,18,Wunderground v.1.15,2013-05-27 23:19:00,
2013-05-27 18:24:00,51.8,49.5,30.05,NNE,30,2.0,10.0,92,0.00,,,0.00,18,Wunderground v.1.15,2013-05-27 23:24:00,
2013-05-27 18:29:00,51.7,49.5,30.05,NE,47,4.0,10.0,92,0.00,,,0.00,18,Wunderground v.1.15,2013-05-27 23:29:00,
2013-05-27 18:34:00,51.6,49.4,30.05,NE,55,2.0,9.0,92,0.00,,,0.00,18,Wunderground v.1.15,2013-05-27 23:34:00,
2013-05-27 18:39:00,51.5,49.3,30.05,ENE,74,3.0,9.0,92,0.00,,,0.01,18,Wunderground v.1.15,2013-05-27 23:39:00,
2013-05-27 18:44:00,51.4,49.4,30.04,ENE,61,2.0,11.0,93,0.00,,,0.01,16,Wunderground v.1.15,2013-05-27 23:44:00,
2013-05-27 18:49:00,51.4,49.4,30.04,ENE,64,0.0,11.0,93,0.00,,,0.01,14,Wunderground v.1.15,2013-05-27 23:49:00,
2013-05-27 18:54:00,51.4,49.4,30.04,NE,40,1.0,8.0,93,0.00,,,0.01,12,Wunderground v.1.15,2013-05-27 23:54:00,
2013-05-27 18:59:00,51.3,49.3,30.04,ENE,78,4.0,9.0,93,0.00,,,0.01,11,Wunderground v.1.15,2013-05-27 23:59:00,
2013-05-27 19:04:00,51.2,49.2,30.04,East,92,1.0,9.0,93,0.00,,,0.01,11,Wunderground v.1.15,2013-05-28 00:04:00,
2013-05-27 19:09:00,51.2,49.5,30.04,ENE,63,1.0,12.0,94,0.00,,,0.01,11,Wunderground v.1.15,2013-05-28 00:09:00,
2013-05-27 19:14:00,51.1,49.4,30.04,East,85,4.0,8.0,94,0.00,,,0.01,9,Wunderground v.1.15,2013-05-28 00:14:00,
2013-05-27 19:19:00,51.1,49.4,30.05,NNE,33,1.0,11.0,94,0.00,,,0.02,5,Wunderground v.1.15,2013-05-28 00:19:00,
2013-05-27 19:24:00,51.1,49.4,30.04,NE,44,4.0,12.0,94,0.00,,,0.02,5,Wunderground v.1.15,2013-05-28 00:24:00,
2013-05-27 19:29:00,51.0,49.3,30.03,ENE,58,4.0,12.0,94,0.00,,,0.02,5,Wunderground v.1.15,2013-05-28 00:29:00,
2013-05-27 19:34:00,51.0,49.3,30.03,NE,56,3.0,11.0,94,0.05,,,0.03,5,Wunderground v.1.15,2013-05-28 00:34:00,
2013-05-27 19:39:00,50.9,49.2,30.03,East,86,6.0,11.0,94,0.28,,,0.06,5,Wunderground v.1.15,2013-05-28 00:39:00,
2013-05-27 19:44:00,50.9,49.2,30.03,East,98,4.0,12.0,94,0.26,,,0.08,0,Wunderground v.1.15,2013-05-28 00:44:00,
2013-05-27 19:50:00,50.9,49.5,30.03,NNE,31,0.0,12.0,95,0.18,,,0.09,5,Wunderground v.1.15,2013-05-28 00:50:00,
2013-05-27 19:55:00,50.8,49.4,30.03,ENE,57,1.0,6.0,95,0.15,,,0.10,0,Wunderground v.1.15,2013-05-28 00:55:00,
2013-05-27 20:00:00,50.8,49.4,30.03,East,80,3.0,10.0,95,0.13,,,0.11,5,Wunderground v.1.15,2013-05-28 01:00:00,
2013-05-27 20:05:00,50.8,49.4,30.03,ENE,71,3.0,12.0,95,0.06,,,0.11,7,Wunderground v.1.15,2013-05-28 01:05:00,
2013-05-27 20:10:00,50.7,49.3,30.03,NE,50,4.0,12.0,95,0.04,,,0.11,0,Wunderground v.1.15,2013-05-28 01:10:00,
2013-05-27 20:15:00,50.7,49.3,30.03,NE,53,0.0,5.0,95,0.00,,,0.11,0,Wunderground v.1.15,2013-05-28 01:15:00,
2013-05-27 20:20:00,50.7,49.3,30.03,NE,34,0.0,7.0,95,0.00,,,0.11,0,Wunderground v.1.15,2013-05-28 01:20:00,
2013-05-27 20:25:00,50.7,49.3,30.03,East,82,3.0,7.0,95,0.00,,,0.11,0,Wunderground v.1.15,2013-05-28 01:25:00,
2013-05-27 20:30:00,50.8,49.4,30.03,East,86,4.0,4.0,95,0.00,,,0.12,0,Wunderground v.1.15,2013-05-28 01:30:00,
2013-05-27 20:35:00,50.7,49.3,30.03,ENE,74,0.0,5.0,95,0.00,,,0.12,0,Wunderground v.1.15,2013-05-28 01:35:00,
2013-05-27 20:40:00,50.7,49.3,30.03,NE,43,0.0,1.0,95,0.00,,,0.12,0,Wunderground v.1.15,2013-05-28 01:40:00,
2013-05-27 20:45:00,50.7,49.3,30.03,NE,50,2.0,4.0,95,0.00,,,0.12,0,Wunderground v.1.15,2013-05-28 01:45:00,
2013-05-27 20:50:00,50.7,49.3,30.02,ENE,67,0.0,2.0,95,0.00,,,0.12,0,Wunderground v.1.15,2013-05-28 01:50:00,
2013-05-27 20:55:00,50.6,49.2,30.02,ENE,70,4.0,7.0,95,0.00,,,0.12,0,Wunderground v.1.15,2013-05-28 01:55:00,
2013-05-27 21:01:00,50.6,49.5,30.02,NE,36,0.0,4.0,96,0.00,,,0.12,0,Wunderground v.1.15,2013-05-28 02:01:00,
2013-05-27 21:06:00,50.6,49.5,30.02,ENE,65,0.0,10.0,96,0.00,,,0.12,0,Wunderground v.1.15,2013-05-28 02:06:00,
2013-05-27 21:11:00,50.6,49.5,30.01,NE,49,0.0,1.0,96,0.00,,,0.12,0,Wunderground v.1.15,2013-05-28 02:11:00,
2013-05-27 21:16:00,50.6,49.5,30.01,East,83,0.0,4.0,96,0.00,,,0.12,0,Wunderground v.1.15,2013-05-28 02:16:00,
2013-05-27 21:21:00,50.6,49.5,30.01,NE,50,1.0,2.0,96,0.00,,,0.12,0,Wunderground v.1.15,2013-05-28 02:21:00,
2013-05-27 21:26:00,50.6,49.5,30.01,ENE,65,6.0,8.0,96,0.00,,,0.12,0,Wunderground v.1.15,2013-05-28 02:26:00,
2013-05-27 21:31:00,50.6,49.5,30.01,ENE,67,6.0,6.0,96,0.00,,,0.12,0,Wunderground v.1.15,2013-05-28 02:31:00,
2013-05-27 21:36:00,50.6,49.5,30.01,ENE,76,1.0,11.0,96,0.00,,,0.12,0,Wunderground v.1.15,2013-05-28 02:36:00,
2013-05-27 21:41:00,50.6,49.5,30.01,ENE,75,2.0,2.0,96,0.00,,,0.12,0,Wunderground v.1.15,2013-05-28 02:41:00,
2013-05-27 21:46:00,50.6,49.5,30.01,East,80,1.0,6.0,96,0.00,,,0.12,0,Wunderground v.1.15,2013-05-28 02:46:00,
2013-05-27 21:51:00,50.6,49.5,30.00,ENE,64,7.0,7.0,96,0.00,,,0.12,0,Wunderground v.1.15,2013-05-28 02:51:00,
2013-05-27 21:56:00,50.6,49.5,30.00,ENE,69,0.0,11.0,96,0.00,,,0.12,0,Wunderground v.1.15,2013-05-28 02:56:00,
2013-05-27 22:01:00,50.6,49.5,30.01,ESE,107,0.0,8.0,96,0.00,,,0.12,0,Wunderground v.1.15,2013-05-28 03:01:00,
2013-05-27 22:06:00,50.6,49.5,30.01,East,99,1.0,8.0,96,0.00,,,0.12,0,Wunderground v.1.15,2013-05-28 03:06:00,
2013-05-27 22:11:00,50.7,49.6,30.01,ENE,74,5.0,8.0,96,0.00,,,0.12,0,Wunderground v.1.15,2013-05-28 03:11:00,
2013-05-27 22:16:00,50.7,49.6,30.01,ENE,70,1.0,8.0,96,0.00,,,0.12,0,Wunderground v.1.15,2013-05-28 03:16:00,
2013-05-27 22:21:00,50.6,49.5,30.01,ENE,60,0.0,3.0,96,0.00,,,0.12,0,Wunderground v.1.15,2013-05-28 03:21:00,
2013-05-27 22:26:00,50.6,49.5,30.02,NE,47,0.0,7.0,96,0.00,,,0.12,0,Wunderground v.1.15,2013-05-28 03:26:00,
2013-05-27 22:31:00,50.6,49.5,30.02,East,96,4.0,4.0,96,0.00,,,0.12,0,Wunderground v.1.15,2013-05-28 03:31:00,
2013-05-27 22:36:00,50.6,49.5,30.02,ESE,104,0.0,7.0,96,0.00,,,0.12,0,Wunderground v.1.15,2013-05-28 03:36:00,
2013-05-27 22:41:00,50.6,49.5,30.02,ESE,105,1.0,7.0,96,0.00,,,0.12,0,Wunderground v.1.15,2013-05-28 03:41:00,
2013-05-27 22:46:00,50.6,49.5,30.02,ESE,107,4.0,8.0,96,0.00,,,0.12,0,Wunderground v.1.15,2013-05-28 03:46:00,
2013-05-27 22:51:00,50.6,49.5,30.02,East,92,5.0,6.0,96,0.00,,,0.12,0,Wunderground v.1.15,2013-05-28 03:51:00,
2013-05-27 22:56:00,50.6,49.5,30.02,ESE,115,0.0,9.0,96,0.00,,,0.12,0,Wunderground v.1.15,2013-05-28 03:56:00,
2013-05-27 23:01:00,50.6,49.5,30.02,East,94,0.0,6.0,96,0.00,,,0.12,0,Wunderground v.1.15,2013-05-28 04:01:00,
2013-05-27 23:06:00,50.6,49.5,30.01,East,101,0.0,7.0,96,0.00,,,0.12,0,Wunderground v.1.15,2013-05-28 04:06:00,
2013-05-27 23:11:00,50.6,49.5,30.01,ENE,65,2.0,5.0,96,0.00,,,0.12,0,Wunderground v.1.15,2013-05-28 04:11:00,
2013-05-27 23:16:00,50.6,49.5,30.01,ENE,62,0.0,5.0,96,0.00,,,0.12,0,Wunderground v.1.15,2013-05-28 04:16:00,
2013-05-27 23:21:00,50.6,49.5,30.00,ENE,70,0.0,1.0,96,0.00,,,0.12,0,Wunderground v.1.15,2013-05-28 04:21:00,
2013-05-27 23:26:00,50.6,49.5,30.01,ENE,75,0.0,4.0,96,0.00,,,0.12,0,Wunderground v.1.15,2013-05-28 04:26:00,
2013-05-27 23:31:00,50.6,49.5,30.01,East,88,4.0,6.0,96,0.00,,,0.12,0,Wunderground v.1.15,2013-05-28 04:31:00,
2013-05-27 23:36:00,50.6,49.5,30.01,ESE,109,4.0,7.0,96,0.00,,,0.12,0,Wunderground v.1.15,2013-05-28 04:36:00,
2013-05-27 23:41:00,50.6,49.5,30.01,East,82,2.0,2.0,96,0.00,,,0.12,0,Wunderground v.1.15,2013-05-28 04:41:00,
2013-05-27 23:46:00,50.6,49.5,30.01,East,97,2.0,6.0,96,0.00,,,0.12,0,Wunderground v.1.15,2013-05-28 04:46:00,
2013-05-27 23:51:00,50.6,49.5,30.00,East,86,4.0,6.0,96,0.00,,,0.12,0,Wunderground v.1.15,2013-05-28 04:51:00,
2013-05-27 23:56:00,50.6,49.5,30.00,ESE,110,6.0,6.0,96,0.00,,,0.00,0,Wunderground v.1.15,2013-05-28 04:56:00,